Wind_Speed
5 4 4 3 4 4 2 2 3 0 2 4 3 3 1 1 4 5 4 2 2 0 0 2 2 4 1 2 4 6 6 5 4 4 2 2 3 5 14 18 13 17 28 31 29 29 27 26 25 23 22 21 20 20 19 19 18 17 17 15 15 15 14 13 13 12 12 12 11 11 11 10 10 10 9 9 8 8 8 8 8 8 8 8 8 7 7 7 7 7 7 5 4 3 3 2 2
4 3 3 2 4 3 1 1 4 1 3 5 1 2 2 1 3 3 4 6 5 3 1 2 4 4 4 4 5 7 6 7 5 4 2 3 5 5 14 19 15 21 29 30 30 27 23 24 26 25 23 21 20 20 19 19 19 18 17 16 15 15 14 13 13 12 12 12 12 12 12 11 10 10 9 9 8 7 8 8 8 8 8 8 8 7 7 7 7 6 6 5 4 3 2 2 1
2 3 2 0 2 1 1 1 4 3 4 5 3 1 1 2 2 4 5 6 6 2 1 2 3 4 5 7 5 6 4 3 5 4 2 7 5 3 13 19 17 22 29 30 30 25 20 22 27 27 24 22 21 20 19 19 19 18 17 16 15 14 14 13 13 13 12 13 13 13 12 12 11 10 9 8 7 7 7 7 8 8 8 8 8 7 7 7 6 6 6 5 5 4 3 2 2
2 3 1 2 1 1 2 2 3 4 5 4 3 2 1 4 3 5 4 5 4 1 3 2 2 2 5 8 3 4 5 3 3 4 2 3 4 3 10 20 18 22 29 31 30 23 19 21 27 28 25 23 21 21 20 20 19 18 17 16 16 15 14 14 14 13 13 13 13 13 13 12 11 10 9 8 7 7 7 7 8 8 8 8 8 7 6 6 5 6 5 6 4 4 3 3 3
2 4 1 2 2 1 1 1 1 3 4 3 4 2 1 2 4 7 5 6 4 3 3 3 2 2 3 5 2 3 3 2 2 5 3 2 5 5 11 21 18 21 28 32 30 23 19 21 26 27 25 23 22 22 21 20 19 18 17 17 16 16 15 15 15 14 14 14 14 13 12 12 11 9 9 8 7 7 7 7 7 8 8 7 7 6 5 5 5 5 4 5 4 4 4 4 5
2 4 4 2 0 1 1 3 2 5 3 2 6 6 3 3 5 8 8 7 2 3 3 3 3 1 3 3 3 4 2 1 1 4 5 3 5 6 12 21 19 20 26 29 27 22 18 21 27 27 25 23 21 22 22 21 20 18 18 17 16 17 17 16 15 15 15 14 15 13 12 12 11 9 8 8 8 9 8 8 7 8 8 7 8 6 5 5 4 4 6 6 5 6 6 7 7
2 1 3 3 2 1 4 4 4 5 2 1 6 8 9 7 4 8 10 6 1 3 3 3 2 3 4 1 3 6 8 7 2 3 6 5 5 5 13 22 20 20 23 25 24 19 18 23 28 26 25 23 21 21 22 21 20 18 18 17 17 17 17 17 16 15 16 15 14 12 12 11 10 9 9 8 9 9 8 8 7 8 7 8 9 6 6 5 4 4 7 8 7 8 8 8 8
1 0 1 2 2 1 4 4 5 5 1 1 6 8 12 11 6 8 9 4 2 1 3 4 2 4 2 2 3 3 7 11 9 9 7 8 7 6 14 24 21 21 23 22 20 18 19 25 27 26 24 23 21 21 21 21 20 19 18 18 18 18 17 18 17 16 15 14 13 12 11 10 10 10 9 10 10 10 9 9 9 9 9 9 9 7 7 6 6 5 8 9 9 9 8 8 7
2 1 1 2 2 2 3 4 4 4 4 4 6 9 11 9 6 7 9 5 4 3 3 3 4 5 2 1 6 1 3 8 11 12 10 10 9 8 14 24 23 23 25 20 18 18 20 26 27 25 24 23 22 21 21 21 20 20 19 18 19 18 18 18 16 15 14 13 13 12 11 11 11 10 11 12 12 11 11 11 11 10 10 9 9 8 9 8 7 8 9 9 9 8 7 6 6
1 2 1 1 2 3 4 4 3 3 4 4 7 11 10 7 5 6 8 6 3 3 1 1 4 8 5 6 7 1 3 6 7 10 11 11 9 10 14 24 24 23 26 21 19 19 20 26 27 25 24 22 22 21 21 21 20 20 19 19 19 18 18 17 16 15 14 14 13 13 12 13 13 12 13 14 13 13 13 12 12 11 10 10 10 9 9 9 9 9 9 8 7 6 4 3 2
1 1 0 2 2 4 4 4 4 3 3 4 7 9 8 4 4 5 6 5 3 4 1 3 4 8 6 7 5 2 5 7 6 7 10 11 11 11 14 22 23 23 24 21 21 22 22 26 28 26 25 24 22 22 22 21 20 20 20 19 19 18 17 17 16 14 15 16 15 14 14 14 15 14 14 14 13 13 13 12 12 12 11 11 11 10 11 11 10 9 8 6 4 2 1 1 2
2 2 2 3 3 4 3 5 6 6 6 5 4 2 1 3 4 3 4 5 3 5 5 7 2 2 5 5 2 2 5 8 7 7 9 11 11 12 15 19 20 20 20 17 21 25 24 24 28 28 27 26 25 24 23 22 21 21 20 20 19 18 17 17 16 16 17 18 17 16 16 15 16 17 16 14 14 13 13 13 13 12 12 11 11 11 12 11 9 8 6 4 3 2 3 3 3
2 2 3 3 1 2 2 4 4 6 7 3 1 3 1 4 4 3 2 3 3 5 4 7 2 1 6 6 3 4 4 6 8 9 9 11 12 13 14 15 16 16 16 15 19 26 28 24 24 27 28 29 27 26 25 24 24 23 22 22 21 20 20 20 20 20 20 20 20 18 17 17 17 18 17 15 15 14 14 14 13 13 13 12 11 11 11 10 9 7 5 4 4 4 4 4 3
1 1 3 1 0 2 2 4 3 4 4 0 1 3 3 4 2 2 2 5 5 3 2 3 3 2 7 5 4 4 2 3 6 8 9 12 13 13 12 12 13 14 15 17 18 24 31 28 21 22 27 29 29 28 27 27 26 26 26 25 24 23 23 22 22 22 20 20 20 19 19 20 19 19 17 16 15 14 14 14 14 14 13 12 12 12 11 10 8 6 5 5 4 4 4 3 3
1 1 2 2 1 2 3 3 2 3 3 1 1 2 3 4 2 3 4 7 5 2 2 2 4 3 3 4 6 1 3 1 4 7 9 11 12 10 9 10 12 14 15 17 19 23 31 32 26 23 25 27 26 25 27 28 28 27 28 27 26 25 24 23 23 22 21 20 20 20 21 21 21 20 18 17 16 15 14 15 15 14 13 13 13 12 11 10 8 7 6 6 5 4 4 3 2
1 1 1 3 2 2 3 3 1 3 3 1 2 2 3 3 4 3 2 4 6 1 2 4 6 5 3 7 7 3 1 3 2 6 9 10 9 7 7 9 11 13 15 18 23 28 32 34 31 27 26 26 23 22 25 29 30 29 29 28 27 26 25 24 23 23 22 22 21 22 23 23 22 21 19 18 17 16 16 16 15 14 14 14 14 13 12 10 9 8 7 7 6 5 4 3 2
1 2 3 3 3 3 3 4 4 1 2 2 3 3 5 4 4 2 1 3 9 5 5 7 6 7 9 10 7 2 4 4 3 6 8 8 7 7 7 10 11 13 15 18 23 27 32 36 34 27 26 30 27 26 30 30 30 29 29 28 28 27 26 25 24 24 24 23 23 24 24 22 20 19 18 18 17 17 17 17 16 15 15 15 15 14 12 11 10 9 8 8 6 5 4 2 1
3 3 4 4 4 4 4 7 6 1 4 4 2 4 6 7 2 1 2 6 10 10 10 10 9 12 15 14 12 11 9 6 6 7 8 8 8 8 9 11 14 16 16 18 21 23 27 36 39 31 27 33 34 33 34 32 31 29 28 28 28 28 27 26 26 26 26 25 26 26 24 20 18 17 17 17 17 18 18 17 17 16 16 17 16 14 13 12 11 10 9 8 6 5 4 3 2
4 2 3 5 5 3 4 7 6 4 7 6 2 3 4 7 3 1 5 10 9 12 14 10 12 16 17 17 18 17 12 10 10 10 11 12 12 11 11 13 15 17 19 21 24 25 25 30 39 39 33 35 37 36 35 33 31 30 28 25 25 28 28 27 27 27 27 27 28 28 22 19 19 17 17 19 18 18 19 18 18 17 17 17 16 15 14 13 12 12 10 8 7 6 5 4 3
3 3 6 7 6 4 4 7 8 7 7 8 6 2 4 7 2 1 6 12 11 13 15 11 12 14 12 13 15 14 13 12 12 13 14 15 15 14 13 15 17 22 26 25 23 24 26 27 36 41 38 39 38 35 34 34 32 30 27 24 23 24 25 27 28 29 29 29 31 28 21 22 23 20 20 23 21 19 19 19 20 19 18 18 17 16 15 15 14 13 11 9 8 7 6 5 5
2 4 8 5 3 5 6 9 10 6 4 7 7 3 7 6 2 5 6 9 12 14 14 14 15 14 11 11 8 9 10 12 13 15 16 17 17 17 16 17 21 26 27 23 21 26 30 31 34 34 33 36 35 30 32 36 34 31 28 24 24 24 24 27 29 32 33 32 33 29 26 28 27 22 23 24 21 19 18 20 20 19 18 19 18 17 17 18 16 14 12 11 9 8 7 7 6
2 7 11 7 2 5 6 6 6 3 1 5 7 7 7 1 3 9 9 9 13 13 12 13 15 14 13 13 6 5 8 11 13 15 16 18 19 19 19 18 19 21 24 25 27 32 34 36 38 32 28 32 30 25 28 36 37 34 30 26 26 26 25 27 31 35 36 35 34 32 32 31 27 24 25 25 23 20 19 20 20 19 19 21 21 20 20 19 17 14 13 12 11 10 9 8 8
6 8 9 9 6 7 6 2 2 3 4 7 7 7 4 4 9 10 13 16 19 18 15 15 16 14 12 10 6 6 9 10 12 15 17 18 20 21 21 20 20 22 27 30 32 33 33 37 41 37 32 30 28 25 26 34 40 38 33 30 30 29 29 31 35 36 37 37 36 35 34 31 29 27 27 28 27 24 23 22 23 23 24 25 24 23 22 19 17 16 15 14 13 12 11 10 9
7 9 6 7 6 9 8 1 2 4 7 10 6 7 8 12 10 5 13 20 23 22 19 18 19 15 10 10 12 12 13 12 14 18 19 20 23 25 25 24 24 25 28 32 33 33 34 38 41 41 36 29 27 27 26 29 39 41 37 37 37 34 34 36 37 38 38 39 38 37 35 33 31 29 30 31 31 29 27 28 29 29 28 26 25 24 21 19 18 17 16 15 14 13 12 11 11
9 12 8 4 4 9 9 3 5 7 9 9 6 10 18 16 7 8 18 21 21 20 19 19 17 15 12 13 16 14 14 15 16 19 19 23 26 23 25 26 22 23 30 35 34 35 37 37 40 42 39 34 28 27 27 27 35 42 39 39 41 38 39 39 38 40 41 40 39 38 36 35 33 32 33 33 33 32 32 33 32 31 29 27 25 24 21 20 19 18 17 16 15 14 13 12 12
8 11 8 5 7 9 8 7 9 9 8 6 7 16 20 9 2 14 23 21 19 17 18 18 13 14 14 13 14 14 14 15 17 18 17 21 23 21 25 25 22 28 34 33 33 37 37 36 39 43 43 39 32 28 28 28 34 43 42 41 43 41 42 41 41 42 42 42 41 40 38 37 36 35 35 35 35 35 35 35 33 32 30 28 25 24 23 21 20 19 18 17 16 15 15 13 12
0 5 8 9 12 11 7 9 10 8 9 9 11 18 18 3 3 14 16 8 10 11 14 14 9 12 13 11 11 11 12 15 16 15 15 16 17 20 24 22 25 34 33 30 35 37 36 37 38 40 42 42 37 31 29 29 32 38 37 37 43 45 45 44 43 44 43 44 44 42 40 39 38 37 37 37 37 37 36 36 35 33 31 28 26 25 24 23 21 20 19 18 17 17 16 14 13
4 4 10 12 12 13 10 12 11 7 7 9 12 16 16 4 4 16 16 3 2 7 12 13 11 12 12 11 10 8 10 15 15 12 14 16 16 19 22 24 30 34 31 35 38 35 36 38 36 37 40 42 41 35 31 30 30 32 31 30 37 41 45 47 44 45 45 45 45 43 42 40 40 40 39 39 38 38 38 37 36 35 32 30 28 26 25 23 22 21 20 19 18 18 16 15 14
3 3 9 13 11 15 15 12 8 6 5 5 9 9 11 10 12 19 18 7 3 7 12 14 13 12 10 10 9 8 9 12 12 12 17 21 19 18 22 28 32 31 32 36 35 35 37 37 37 39 39 41 43 39 33 32 32 32 30 29 31 31 39 49 47 47 48 47 47 45 43 42 42 41 40 40 39 39 39 38 37 36 34 32 29 28 26 24 23 22 21 20 19 18 17 16 15
5 3 4 10 11 11 8 4 1 3 5 7 7 6 7 11 15 17 10 3 5 9 13 13 12 11 9 8 7 9 11 11 11 14 18 20 15 14 20 25 26 29 31 30 31 35 37 37 40 41 40 43 45 43 38 36 37 36 33 33 30 27 36 49 49 48 49 48 48 46 45 44 43 42 41 41 40 40 40 39 38 37 35 33 30 29 27 26 25 24 23 22 21 19 18 18 16
5 3 2 5 8 6 1 4 2 4 3 9 8 8 8 9 13 12 2 1 5 10 14 13 12 11 9 9 9 12 13 12 14 17 17 15 14 16 22 24 25 30 31 30 33 35 34 36 39 40 42 43 44 46 44 43 42 39 39 38 30 28 38 48 48 48 49 49 49 48 47 46 44 43 42 41 41 41 41 40 39 38 36 34 31 30 29 28 27 26 25 24 23 21 21 19 18
3 4 4 4 5 6 5 3 6 8 2 6 7 7 8 9 11 10 2 2 3 8 14 15 17 16 13 13 12 13 14 15 16 16 14 13 17 20 24 27 28 31 32 33 34 34 33 35 37 39 42 43 45 48 49 48 44 41 43 42 36 36 43 46 47 48 49 50 50 49 48 47 45 45 43 42 42 42 42 41 40 39 37 34 33 33 31 30 29 28 27 26 25 24 22 21 19
4 5 8 6 7 8 7 6 7 7 2 5 11 9 8 6 9 9 3 3 7 10 16 20 22 20 16 14 12 12 12 13 13 12 11 12 16 19 23 26 28 29 31 32 32 32 33 33 35 37 41 44 45 47 48 48 46 43 43 43 43 43 45 45 46 47 48 49 49 49 49 48 47 46 45 43 42 43 42 41 41 39 38 36 35 35 33 32 31 29 28 27 26 25 24 22 20
5 5 6 7 9 9 7 7 5 3 4 7 12 12 13 12 13 14 12 14 14 15 19 21 21 18 16 14 13 11 9 10 9 8 10 13 16 19 20 23 25 26 28 29 31 31 31 32 34 36 38 40 42 43 44 44 43 42 40 40 42 43 43 45 45 45 46 48 49 50 50 49 48 47 46 44 43 43 43 42 41 40 38 38 37 36 35 34 32 31 30 29 27 26 24 22 20
8 5 6 6 7 9 9 10 5 3 7 10 10 14 16 16 15 15 17 17 16 17 19 20 19 18 16 14 13 10 8 8 6 8 11 15 17 17 17 19 22 23 25 26 27 28 29 30 32 34 34 35 37 38 38 38 36 33 33 35 39 40 40 42 43 44 44 46 48 49 50 49 49 48 47 45 45 44 43 43 42 41 40 39 38 37 36 35 33 32 31 30 29 26 22 21 20
8 6 7 9 9 9 12 14 9 6 11 13 14 19 17 15 14 13 15 15 16 19 19 18 15 14 15 14 11 7 6 6 6 9 15 15 16 16 16 16 18 19 20 22 22 23 25 27 29 30 31 32 32 31 32 31 27 25 25 28 33 37 38 40 42 43 43 45 48 49 50 49 49 49 48 47 46 45 45 44 43 42 41 40 40 39 38 37 36 35 33 32 31 28 23 21 21
5 6 8 10 11 12 13 15 11 2 6 11 13 19 19 17 17 15 16 17 18 21 19 15 14 15 14 11 5 5 6 5 6 11 12 14 15 15 16 16 16 16 16 16 16 18 21 22 25 27 28 30 29 27 28 28 26 24 24 26 29 31 35 39 40 42 43 44 46 48 48 49 48 49 49 48 47 47 45 44 44 43 42 42 41 40 40 39 38 36 34 32 31 29 25 24 24
10 9 10 10 10 13 13 14 13 2 3 8 9 17 19 17 19 18 18 18 18 19 16 16 18 17 10 4 6 7 5 5 6 7 9 13 16 18 22 23 20 15 13 13 13 14 16 17 19 22 24 27 29 28 28 28 27 27 27 27 27 24 29 36 36 38 42 43 44 46 47 47 48 48 48 48 48 47 46 45 44 44 43 42 42 41 40 40 38 37 35 32 30 27 24 26 27
11 8 8 9 8 12 11 10 10 2 2 8 11 15 16 17 22 21 17 15 15 16 15 17 17 12 7 7 6 4 4 4 3 6 9 13 17 21 24 24 23 20 16 14 12 11 11 13 15 17 19 24 28 29 30 30 27 28 26 24 23 20 23 30 32 33 38 41 42 43 45 45 46 47 47 48 48 48 47 46 45 45 44 44 43 42 40 40 39 39 38 35 31 24 19 26 32
9 8 7 9 8 9 8 5 1 1 4 10 13 14 13 15 16 12 10 10 10 14 16 14 7 5 7 5 2 2 2 2 5 8 10 14 17 20 23 22 24 23 18 17 17 13 9 10 12 14 17 21 24 27 31 30 26 27 27 25 23 20 19 23 28 31 33 36 38 40 42 44 45 46 47 48 48 49 48 47 47 46 46 45 45 44 42 42 41 41 40 37 34 26 19 25 35
9 9 8 11 12 11 11 7 5 7 8 5 10 12 7 4 2 1 2 4 5 12 12 3 6 7 4 2 1 2 3 3 6 10 11 12 14 18 20 21 23 21 18 21 22 16 11 9 9 11 13 17 21 24 28 28 26 25 25 24 22 19 19 19 22 25 24 27 32 34 38 41 43 45 47 48 49 50 49 49 48 47 47 47 46 46 45 44 44 43 43 40 38 33 24 24 33
8 7 11 16 15 14 15 11 8 8 5 1 7 9 3 1 1 4 6 3 7 12 5 7 9 7 5 5 5 4 3 4 8 11 12 12 14 16 19 22 23 21 23 28 26 21 16 11 8 8 9 12 17 21 24 25 24 21 19 20 18 17 18 18 19 19 19 24 28 30 35 39 42 44 46 48 49 49 49 49 49 48 48 48 48 47 46 46 45 45 45 43 42 37 27 21 27
8 3 6 12 13 13 12 9 6 5 4 1 3 5 6 4 4 6 6 5 11 13 2 8 7 5 5 5 6 5 5 8 10 12 13 14 15 17 20 24 22 21 27 32 30 27 22 16 12 7 6 7 11 16 20 22 21 19 19 20 18 17 17 16 17 18 18 23 26 29 33 36 39 42 43 44 46 47 48 48 49 49 48 48 49 48 47 47 47 46 46 45 44 39 29 21 24
5 2 2 4 7 8 5 5 5 5 6 3 3 4 8 7 4 3 4 8 13 12 3 9 8 7 6 5 6 7 9 11 10 11 13 13 14 16 17 18 18 22 32 37 33 30 27 22 17 10 6 5 9 12 15 19 18 17 19 19 17 17 16 12 13 16 17 19 23 27 29 31 36 39 40 41 43 44 46 47 48 48 48 48 49 49 48 48 47 47 47 46 46 42 37 28 24
2 3 2 1 1 3 2 4 5 4 6 4 4 5 6 8 2 3 3 8 9 6 7 11 9 8 5 5 8 11 12 12 11 11 11 11 13 14 12 13 19 27 34 37 34 32 29 26 22 16 10 6 7 10 12 16 17 15 15 17 16 15 15 12 11 13 14 17 21 24 25 27 32 36 39 40 41 43 45 46 47 47 48 48 48 48 48 48 48 48 48 47 47 44 44 37 24
1 4 3 4 2 2 1 3 4 3 6 6 6 8 7 9 2 4 2 3 3 4 9 11 8 5 4 6 10 12 12 11 10 9 9 11 13 13 14 20 28 29 29 34 37 35 32 29 26 21 15 10 8 8 9 13 16 16 13 14 15 14 13 12 11 11 11 14 17 19 21 24 28 33 37 39 41 43 45 46 46 47 48 47 48 48 48 49 48 48 48 48 49 46 47 44 31
2 4 1 1 2 2 0 2 2 4 9 6 9 13 9 6 1 2 1 0 0 2 6 8 7 5 5 8 11 12 11 9 7 7 10 12 14 17 21 26 29 29 28 33 38 38 36 32 28 23 20 15 11 8 7 9 12 14 13 12 14 14 12 11 11 11 11 12 14 16 18 21 24 28 33 36 40 42 43 45 45 46 48 48 49 50 50 50 49 48 48 47 49 49 47 48 42
1 2 1 2 2 0 1 1 1 5 7 2 2 5 8 8 2 1 1 2 2 2 2 4 8 8 8 10 11 10 9 8 8 9 11 13 15 19 25 27 27 29 30 31 33 36 37 36 31 26 24 21 15 11 8 8 9 11 12 12 13 13 13 13 13 13 11 12 13 13 14 17 20 23 28 32 37 40 41 42 43 45 46 48 50 51 51 51 50 49 49 48 49 51 49 49 47
3 3 1 2 2 1 2 1 2 6 5 2 3 2 6 10 5 5 10 9 2 2 4 7 10 9 8 10 10 9 8 9 11 11 11 12 13 16 21 24 24 26 28 28 29 31 32 34 33 28 27 26 20 15 11 9 10 11 11 12 12 11 12 13 14 14 12 12 13 13 14 16 17 21 26 31 36 39 41 42 44 45 46 47 49 50 50 51 51 49 49 50 50 51 52 51 50
6 5 4 3 1 1 3 3 3 5 2 2 2 1 5 8 6 8 12 10 4 7 7 8 9 9 9 10 10 10 10 11 11 10 11 11 12 15 19 20 20 21 23 24 26 27 27 28 30 28 28 29 26 21 18 14 11 12 13 13 13 12 12 13 14 14 13 12 13 14 16 17 18 22 28 32 34 37 40 42 44 44 44 45 46 48 49 49 50 50 49 51 52 53 53 53 52
6 4 3 4 4 3 4 4 4 5 3 1 1 2 4 4 0 3 5 6 4 8 8 9 10 10 9 10 10 11 11 10 9 9 10 12 14 17 18 17 17 18 19 21 22 24 24 23 25 27 28 30 31 27 23 19 15 13 13 13 14 14 14 14 14 14 13 13 14 16 17 18 19 23 27 31 32 34 37 40 42 43 44 44 44 45 47 47 47 48 48 50 51 52 52 52 53
2 2 2 4 5 5 4 4 3 2 4 3 3 3 5 5 5 5 7 2 9 13 11 12 12 10 9 9 10 9 9 8 8 9 11 13 15 16 16 17 17 17 18 19 20 21 21 22 23 25 26 27 30 29 25 22 19 16 15 14 13 15 16 17 17 16 16 17 18 19 19 19 21 23 26 28 30 32 35 37 40 43 44 45 45 45 45 46 46 46 47 47 48 49 50 50 51
3 3 4 2 0 3 4 4 1 1 5 5 4 6 7 7 9 5 2 8 14 13 11 12 10 9 9 9 8 8 8 8 9 10 10 12 14 15 16 16 15 16 16 17 18 18 18 20 21 23 24 25 27 28 28 27 25 21 19 17 15 15 15 17 17 19 21 22 22 22 22 22 23 25 26 27 29 30 32 34 37 40 42 44 45 46 46 46 46 46 46 46 48 49 49 49 49
4 3 3 1 2 1 3 3 1 3 7 5 5 10 10 7 6 3 11 12 11 10 10 9 8 8 9 8 7 7 7 8 8 9 9 10 12 13 14 14 15 16 17 18 18 16 16 17 18 19 20 21 24 28 30 31 31 28 25 21 18 16 15 16 17 18 20 22 23 24 23 24 25 26 27 27 28 29 31 33 34 37 40 42 43 45 46 47 46 46 47 47 48 48 47 48 49
1 1 1 1 2 3 3 3 3 6 8 5 7 12 10 7 8 4 5 7 8 9 9 7 7 8 7 7 7 7 7 6 7 8 7 8 9 11 12 13 16 17 18 19 19 19 19 20 20 20 20 20 24 30 32 32 32 30 28 26 23 19 16 15 16 17 18 20 22 23 24 26 26 27 27 28 28 29 30 31 33 35 37 39 41 43 44 45 46 46 46 47 47 47 47 47 47
1 2 2 1 2 4 3 2 2 5 9 8 8 10 8 8 9 8 2 5 6 7 7 7 7 6 5 5 5 5 6 6 6 6 6 6 8 10 11 12 13 15 16 16 17 20 22 24 26 28 27 26 27 29 29 30 31 31 29 29 28 25 21 17 15 15 15 17 19 21 23 26 26 26 27 27 28 29 30 32 33 34 36 37 39 41 42 43 44 44 45 46 47 47 48 47 46
4 4 4 3 2 1 3 3 3 5 8 8 9 9 6 4 4 1 5 6 5 6 7 6 6 6 5 5 4 4 4 4 3 3 3 4 6 7 8 9 10 11 12 13 14 16 19 22 26 28 29 30 30 28 26 26 26 28 29 28 28 28 25 22 19 15 13 14 16 19 22 24 25 26 26 27 28 29 31 32 33 33 35 36 37 39 41 42 43 44 45 46 46 46 47 48 46
4 6 7 7 6 3 5 7 6 6 6 5 7 8 5 1 3 6 8 6 6 7 8 7 6 5 4 4 3 3 2 2 2 2 2 3 3 4 5 6 7 8 10 11 12 13 16 18 20 20 22 25 27 29 28 25 22 23 27 27 27 28 28 27 24 21 17 15 15 16 19 21 22 24 25 27 28 30 31 32 33 34 34 36 37 38 39 41 43 44 45 45 45 45 46 47 46
Wind_Direction
335 333 330 336 335 297 289 328 285 191 269 281 282 295 244 181 323 296 294 317 304 31 191 296 166 167 193 307 311 318 305 260 276 291 337 41 287 239 184 188 189 176 179 182 181 181 180 179 176 178 183 184 185 183 185 187 187 188 189 187 186 185 185 185 182 183 180 178 178 177 177 172 171 166 161 158 157 156 149 149 148 147 145 144 145 146 149 145 147 144 138 159 171 159 154 119 101
346 343 344 16 8 308 234 350 285 285 271 284 284 276 20 84 268 295 339 355 351 35 351 269 210 229 279 301 302 294 266 229 266 308 342 301 292 252 198 187 184 176 179 183 182 181 181 183 179 179 184 184 187 186 186 188 190 190 190 189 190 188 187 190 184 184 183 182 183 180 179 175 171 168 162 156 154 152 146 143 139 140 141 145 147 147 146 141 155 151 142 168 176 174 170 145 162
4 1 358 336 28 353 201 235 273 297 291 294 326 43 52 264 272 360 360 348 354 28 272 234 225 251 251 251 263 279 272 225 257 273 271 283 283 254 208 190 182 177 180 185 182 181 182 188 185 181 184 185 188 188 188 190 191 192 192 190 190 189 187 189 185 185 186 185 186 183 182 177 170 168 163 161 160 157 149 143 139 137 138 142 143 144 143 143 160 149 150 183 182 189 205 223 265
20 6 9 253 238 228 234 257 280 288 289 294 317 59 116 280 336 353 340 334 336 277 240 211 209 200 235 259 286 276 272 256 222 223 260 289 252 267 209 195 185 177 184 186 183 183 183 195 191 184 186 186 189 190 190 191 193 194 194 193 191 190 187 187 186 187 190 189 187 184 183 174 170 170 168 170 167 163 155 151 147 142 142 143 145 144 144 156 165 143 162 202 199 210 229 256 279
37 25 49 256 250 282 300 276 276 255 279 319 313 360 75 297 320 317 312 315 308 234 228 222 238 139 234 271 298 278 284 271 169 203 249 320 248 257 206 197 189 180 187 186 185 185 186 199 194 187 187 187 190 191 192 193 194 196 198 196 194 193 189 187 188 191 193 191 187 181 178 173 173 174 174 177 176 175 168 164 160 158 157 154 163 158 151 166 165 151 189 218 221 235 247 266 279
75 52 65 79 75 341 244 247 246 247 278 330 291 306 334 309 305 308 304 306 294 210 223 226 273 286 255 243 220 251 297 307 116 194 220 274 253 246 205 198 192 183 186 187 187 187 190 198 192 188 189 189 192 194 195 196 195 197 200 197 196 197 193 191 190 192 193 191 188 181 179 179 179 180 181 181 184 187 182 179 176 174 171 170 180 178 169 173 166 176 218 230 236 246 258 271 279
168 126 65 95 117 261 255 262 269 268 291 247 277 295 308 310 313 306 306 314 166 176 208 229 298 287 269 216 233 238 243 244 244 223 213 243 252 237 204 198 195 185 185 187 189 189 196 196 190 190 191 190 192 196 197 197 196 197 200 196 198 201 198 197 193 192 194 191 186 182 183 185 185 187 188 194 200 200 200 198 196 191 186 193 193 185 183 186 174 187 228 237 246 255 265 272 277
123 191 13 250 178 220 263 265 272 275 275 235 272 274 287 303 310 297 299 309 267 214 201 220 226 266 283 127 259 222 233 241 237 247 235 244 246 230 202 198 197 188 186 188 191 193 197 194 188 191 192 191 192 197 198 198 198 198 199 197 200 201 200 201 196 194 192 189 187 187 192 194 193 196 202 220 226 218 219 212 203 204 202 205 196 182 185 185 176 197 239 246 254 259 267 272 279
60 8 198 254 231 235 261 262 269 262 249 251 263 258 269 289 291 283 280 273 271 265 223 214 199 244 350 210 262 172 214 251 246 247 242 243 240 231 204 199 200 191 189 189 192 195 195 191 188 191 193 194 195 197 197 198 199 199 199 198 200 200 200 200 194 193 190 189 191 194 201 205 202 210 222 228 229 215 211 205 196 201 200 196 185 177 178 174 187 223 246 249 257 261 268 276 287
75 360 194 224 236 256 261 258 262 238 239 249 265 265 269 277 270 260 265 277 276 260 244 99 206 238 299 295 275 252 237 268 257 251 242 237 233 228 208 201 200 194 194 192 193 193 192 192 190 192 193 196 198 198 197 198 200 201 201 199 201 200 199 196 192 194 197 201 204 206 210 215 219 226 225 216 214 205 200 197 192 193 189 185 177 180 190 196 214 236 245 247 254 257 266 281 313
180 56 230 233 230 261 273 272 272 265 263 266 271 265 268 266 250 246 243 274 273 255 236 140 217 236 261 282 270 248 264 275 255 248 241 230 229 223 208 202 199 198 200 196 194 193 193 194 193 193 194 195 197 200 199 199 201 202 202 200 201 199 198 198 199 206 211 212 215 220 219 224 228 221 214 206 205 202 197 195 192 189 186 185 179 191 213 219 226 233 237 240 241 231 202 112 91
222 140 210 245 243 263 289 290 283 295 292 272 260 203 231 187 202 250 233 267 274 259 233 187 219 264 241 265 265 237 249 260 249 241 237 222 224 219 207 203 199 202 204 198 196 195 195 195 196 196 196 196 197 201 200 200 200 201 203 201 203 203 207 209 209 213 216 217 216 219 218 221 222 215 212 205 203 201 197 196 193 190 189 187 185 205 221 221 222 224 224 211 186 155 129 115 105
244 166 214 246 272 273 287 288 286 302 295 262 184 123 131 191 208 279 243 270 252 263 252 197 207 355 262 278 284 264 232 239 248 239 227 213 215 213 204 203 202 203 202 200 200 198 198 197 199 200 200 199 199 202 201 201 201 202 204 205 207 208 214 216 215 215 220 220 215 216 215 216 218 218 217 206 202 202 199 198 195 193 192 189 194 212 219 215 217 211 196 172 157 144 128 116 107
245 189 245 257 62 266 249 277 276 282 294 16 109 135 187 221 236 273 244 287 260 252 350 198 192 255 263 275 267 257 180 222 243 227 214 208 209 208 202 202 203 203 203 204 205 203 201 201 201 202 204 203 202 204 205 204 204 205 207 209 211 212 216 218 218 218 221 219 212 215 215 214 218 218 214 204 203 205 202 203 201 198 192 192 203 214 214 212 208 192 177 166 157 146 133 123 109
231 178 251 248 197 239 218 253 285 266 286 336 110 127 213 236 199 207 234 291 297 95 38 206 181 243 248 239 275 37 106 269 236 212 205 205 205 204 201 204 206 204 207 208 208 206 205 205 205 205 206 206 205 206 208 208 208 208 209 211 213 215 216 217 217 215 217 216 210 212 213 214 216 214 211 207 206 208 208 207 203 200 195 199 209 212 211 207 197 185 178 172 166 157 147 135 114
254 180 211 252 227 227 207 210 228 247 260 181 116 123 252 230 171 227 259 293 295 140 185 209 190 252 263 241 279 44 138 277 229 205 198 202 202 199 205 209 211 211 213 213 211 209 209 209 209 210 210 210 209 209 211 212 213 212 212 213 214 216 216 216 214 212 215 214 209 211 213 214 214 214 213 210 210 211 211 207 201 198 198 203 208 208 207 201 192 187 183 178 174 167 159 147 117
208 219 228 248 230 226 197 189 200 258 291 210 150 177 253 260 165 217 320 252 268 259 214 216 204 238 245 244 271 291 266 275 231 204 187 194 193 194 208 208 209 214 217 216 214 212 212 213 213 214 214 214 213 213 215 215 216 215 214 214 215 215 214 215 213 211 214 213 211 211 213 212 211 212 212 211 211 211 211 208 200 193 196 201 204 205 202 196 194 191 186 183 178 171 161 148 136
213 222 236 247 245 234 195 208 210 250 293 261 177 171 245 277 261 147 249 239 248 262 252 230 230 242 240 247 260 259 262 258 230 205 188 191 189 196 203 205 209 213 216 216 216 215 215 216 216 216 216 217 216 217 219 218 218 216 214 214 215 215 213 214 212 212 213 212 212 212 212 209 206 207 207 206 206 208 210 207 198 189 192 200 203 202 199 196 196 194 191 187 180 175 168 167 176
227 222 242 244 245 224 189 223 216 224 276 285 257 182 233 277 309 54 270 269 259 268 270 239 232 246 242 243 246 247 246 239 226 212 206 203 202 204 200 202 208 212 214 214 214 213 213 216 218 218 218 219 219 221 222 220 219 216 214 213 214 214 213 213 212 213 212 211 213 212 207 205 203 201 203 204 202 204 206 203 194 189 193 201 203 201 199 197 197 198 196 190 184 182 182 188 198
226 219 248 248 243 238 210 231 229 234 273 286 273 212 240 262 266 209 261 278 270 260 268 256 244 252 248 238 232 228 227 226 221 220 222 219 216 213 208 203 206 215 216 214 213 211 212 214 217 218 220 221 221 222 223 221 218 216 213 212 212 210 212 213 211 213 211 211 214 210 202 206 208 204 208 210 206 204 203 199 194 194 198 203 204 200 198 198 200 201 195 191 192 192 193 199 205
186 201 247 257 240 252 227 223 235 242 270 273 273 274 266 264 197 221 242 277 270 253 252 251 259 271 272 262 232 199 212 222 220 224 228 227 224 222 220 215 218 224 221 215 212 214 216 214 214 216 218 220 220 220 221 220 217 215 212 212 211 207 210 211 210 213 213 214 216 211 207 214 214 209 213 213 206 201 197 195 194 195 198 203 203 196 197 200 202 200 195 195 197 199 201 205 207
217 220 247 260 220 260 244 213 232 230 224 256 257 267 277 292 214 224 222 250 262 261 258 254 266 279 281 278 260 191 213 223 222 225 227 228 228 226 226 225 225 226 225 221 219 221 221 218 215 213 213 215 216 216 218 219 217 216 213 211 209 207 209 209 211 213 215 217 216 214 214 218 215 209 212 209 201 197 192 191 192 193 195 202 200 195 199 202 201 198 197 198 200 203 204 207 208
251 235 238 251 234 249 256 159 180 178 205 242 247 277 298 257 260 234 213 236 252 262 272 273 276 277 276 279 264 231 227 225 226 227 226 228 229 228 227 224 223 225 228 228 225 224 224 222 218 215 214 212 213 213 214 218 218 217 214 213 211 209 210 211 213 214 215 217 216 217 217 217 213 209 211 207 203 199 194 192 193 196 199 203 202 200 205 203 200 198 199 202 202 205 205 206 207
250 255 241 249 241 247 259 172 180 212 235 249 265 298 278 254 265 243 221 237 250 262 271 271 274 274 270 267 257 251 246 238 237 237 234 234 236 236 235 232 229 230 232 232 229 226 226 226 221 217 216 211 209 211 212 216 219 218 216 217 216 213 214 214 215 216 216 217 217 218 217 215 212 210 211 209 208 205 201 201 202 203 205 207 205 204 206 202 200 200 201 202 203 205 204 205 205
226 251 256 246 247 254 264 245 222 242 248 252 266 273 265 259 277 273 252 248 253 262 269 268 269 268 261 258 258 255 254 249 246 247 244 244 246 244 242 238 232 232 235 235 232 229 230 229 224 219 217 214 210 207 210 214 218 218 217 218 218 216 217 216 215 217 217 217 217 218 217 215 213 212 213 211 210 208 206 208 207 208 209 208 207 205 203 202 202 201 202 203 203 205 204 205 205
214 245 272 273 273 273 272 260 239 240 244 222 231 259 264 266 321 273 260 254 257 259 265 270 267 264 259 254 255 252 252 252 250 250 248 249 249 244 243 239 229 235 239 237 235 234 232 230 228 224 220 218 213 207 209 213 216 218 219 220 219 218 218 217 217 218 218 218 218 219 218 217 216 215 214 212 211 210 209 210 209 209 211 210 208 205 203 203 204 204 203 203 204 204 204 204 204
150 270 291 280 278 281 261 260 253 242 250 215 217 257 265 236 114 268 265 242 247 251 259 268 262 259 260 253 252 249 249 252 251 251 253 251 243 239 243 235 231 239 240 237 238 237 234 232 231 228 223 220 217 212 210 212 215 217 219 220 220 220 221 219 218 218 218 219 219 219 219 218 218 217 216 214 212 211 210 210 209 210 212 210 208 206 204 203 205 206 204 204 204 204 204 203 203
12 324 297 280 278 280 253 252 254 233 249 217 211 253 265 237 187 253 263 238 224 260 267 269 262 260 262 261 259 248 246 251 249 244 247 249 239 237 241 238 239 242 240 241 241 238 237 234 231 230 226 222 220 216 212 213 213 213 215 216 218 220 222 221 219 219 219 220 221 221 220 220 219 219 218 217 214 212 211 209 209 211 212 211 209 207 206 205 205 207 207 206 205 204 203 203 203
326 306 292 290 288 283 266 254 245 208 229 179 185 243 255 233 224 244 256 267 289 277 273 271 267 265 264 265 267 259 253 251 245 236 241 246 245 244 248 251 251 248 246 247 243 238 239 235 233 232 228 224 222 220 217 215 214 213 213 211 213 216 220 221 220 221 221 221 223 223 222 221 220 220 219 219 216 213 212 211 211 212 212 212 210 208 207 206 206 207 208 206 205 204 203 203 203
273 254 280 296 290 283 269 238 214 216 211 154 174 251 255 232 238 251 256 265 291 280 272 273 270 269 268 265 269 268 262 253 245 242 247 252 256 259 260 261 259 256 255 251 245 242 240 236 234 231 228 227 224 221 219 219 219 217 215 214 213 213 218 220 220 222 221 222 223 224 223 223 222 221 220 219 216 214 214 213 213 213 213 212 210 208 207 206 206 207 206 204 203 202 203 204 204
273 274 226 273 273 279 55 131 160 258 199 156 198 260 265 256 266 271 285 83 284 283 280 280 275 270 270 266 263 267 267 262 259 261 265 269 275 273 268 267 263 260 257 251 249 248 242 238 235 231 228 228 225 223 222 222 222 220 218 217 213 214 219 220 220 221 222 223 224 224 224 223 223 222 221 220 217 215 215 214 214 214 214 213 210 208 207 206 207 207 205 203 200 200 203 203 203
253 272 253 229 236 266 291 250 225 250 252 159 208 260 259 249 270 278 23 79 253 274 283 285 281 277 274 270 264 265 269 270 273 279 283 281 277 275 273 271 266 261 258 254 253 250 243 239 237 232 229 228 226 226 225 224 223 222 222 220 219 223 224 222 221 222 223 223 224 224 224 223 223 223 223 221 218 216 215 215 216 216 215 212 210 209 207 207 206 206 205 203 201 199 201 202 202
218 237 261 255 253 276 295 280 245 231 188 190 220 257 275 247 267 279 278 265 262 273 282 281 282 283 278 274 270 264 270 280 288 295 297 291 281 275 274 273 270 266 263 259 254 249 244 240 237 234 231 230 228 228 227 226 224 225 226 224 225 227 226 223 222 223 223 223 223 223 224 223 223 223 224 222 220 218 217 217 217 217 216 212 210 209 207 207 207 206 205 203 202 200 200 200 200
234 218 246 256 255 271 289 285 282 183 178 226 229 242 263 261 270 279 278 278 277 277 279 277 277 280 278 277 276 273 282 291 299 316 312 298 283 275 274 275 275 272 268 263 256 251 246 241 239 237 233 230 228 227 226 225 225 226 227 226 226 227 226 224 224 224 223 223 223 223 224 224 223 223 224 223 221 220 219 218 218 218 216 212 210 209 207 207 208 208 206 203 202 200 198 198 198
266 259 266 276 252 247 264 270 288 296 263 269 261 252 261 265 262 266 271 275 275 270 270 270 271 276 280 278 279 286 299 304 327 335 304 288 286 289 289 286 284 277 271 266 259 252 247 242 241 239 233 228 227 226 225 224 223 224 224 225 227 227 226 225 224 224 224 224 224 224 225 224 223 223 223 223 221 220 220 219 219 219 215 211 210 208 206 207 208 207 206 205 202 198 196 195 197
285 293 279 283 278 262 265 268 272 290 283 279 274 272 278 281 271 267 270 272 272 268 265 269 275 277 276 275 282 309 336 344 341 301 289 295 305 309 308 305 301 291 279 269 260 251 246 241 239 238 233 228 225 222 221 219 216 216 218 220 224 225 225 226 225 225 225 225 225 225 225 224 223 223 223 222 221 221 220 220 220 219 215 212 210 208 208 209 208 207 206 205 202 198 195 194 196
301 278 270 269 277 276 272 276 278 271 279 271 265 276 286 288 283 278 273 270 269 268 270 277 280 274 272 280 312 20 17 342 292 286 304 323 327 331 337 342 334 316 298 282 266 255 249 241 237 236 233 227 222 217 215 213 209 208 211 215 219 221 222 225 226 226 226 226 226 225 225 224 223 223 223 222 221 221 219 219 218 217 215 212 211 211 211 211 210 207 205 204 202 198 196 196 194
268 263 274 271 268 273 270 275 282 283 276 272 263 276 286 289 285 276 268 266 266 270 276 277 271 269 279 347 38 34 360 302 282 313 347 348 348 360 5 5 359 344 328 309 287 271 259 246 238 235 233 228 223 220 217 216 213 211 213 215 217 216 220 222 223 225 226 226 226 226 225 224 224 223 223 222 221 220 218 217 217 216 215 213 212 212 212 212 210 207 204 201 199 197 198 198 191
262 258 268 270 269 279 273 260 273 298 273 285 293 290 289 282 274 273 272 264 261 264 261 259 264 278 321 17 27 360 318 297 340 17 17 6 2 7 9 8 4 1 360 351 331 306 280 256 245 237 233 231 228 224 222 220 218 217 218 218 217 215 221 225 224 226 227 227 227 227 225 225 224 224 224 223 221 220 218 217 217 217 216 214 212 211 212 211 210 208 205 201 196 193 198 200 193
247 247 261 272 268 274 272 243 256 2 266 286 303 294 283 272 260 266 271 251 255 262 252 253 276 342 350 352 335 316 331 347 32 40 29 17 9 10 12 7 2 3 9 11 3 343 314 280 259 245 237 235 232 228 227 224 221 221 220 221 222 219 224 229 228 230 231 229 228 228 227 226 225 225 225 224 222 220 220 219 218 218 217 215 213 212 211 211 210 209 206 202 196 191 192 200 198
242 235 245 263 264 261 266 279 330 308 270 284 314 296 283 277 228 120 262 230 268 267 252 252 60 58 47 72 88 44 40 29 36 35 28 19 12 14 15 6 2 1 2 10 12 4 344 317 285 261 246 240 235 233 232 226 223 222 218 220 223 223 227 228 227 229 229 228 228 229 229 227 226 226 226 225 224 222 221 220 219 219 218 216 214 213 213 213 212 211 208 204 202 198 192 195 199
261 228 227 250 266 272 274 292 323 306 271 64 345 317 302 88 38 335 323 314 279 261 237 86 77 72 77 86 67 54 58 50 38 31 26 19 11 12 15 12 6 1 4 11 15 13 6 351 325 289 262 246 239 236 234 227 222 220 212 210 212 213 220 220 219 220 218 222 225 228 231 230 228 228 227 226 225 223 222 221 220 220 219 217 215 214 214 214 213 213 211 207 206 204 196 191 197
272 238 232 248 264 273 278 297 306 292 292 37 17 306 283 274 256 282 300 273 260 261 255 85 86 72 71 78 68 64 55 46 38 31 28 21 12 10 13 13 6 0 11 18 17 15 14 11 0 330 289 262 249 241 233 225 218 215 213 212 212 212 216 217 215 214 216 219 221 225 229 230 229 228 228 227 226 224 223 221 221 221 220 219 217 215 215 216 215 215 214 211 209 206 200 194 196
268 17 340 263 267 275 278 293 270 277 314 296 183 226 273 285 250 226 244 240 255 274 357 74 87 87 74 65 66 58 45 39 32 29 27 21 19 17 12 8 7 13 22 25 22 17 16 15 15 2 329 290 266 252 235 226 219 215 215 217 220 223 224 225 217 214 217 218 219 223 226 227 228 228 227 228 227 225 224 223 222 222 220 220 219 216 216 217 217 217 216 214 211 208 205 203 200
276 64 32 62 318 305 288 280 269 287 314 285 178 173 263 281 234 165 235 246 265 313 40 65 77 90 83 70 69 56 45 39 31 29 27 24 28 23 12 14 22 26 27 28 27 24 21 18 20 16 360 338 292 270 245 233 228 222 221 221 226 232 233 237 232 224 221 221 221 222 222 224 227 227 227 228 228 227 226 225 224 222 221 221 220 219 218 219 219 218 217 215 213 211 211 210 207
151 132 110 94 102 55 61 282 294 296 285 265 175 170 255 288 228 153 216 265 297 36 71 79 81 77 71 67 62 52 46 42 34 32 33 35 35 25 19 26 30 28 25 28 32 32 28 22 23 23 12 360 330 295 263 246 237 232 231 229 232 236 235 238 240 234 227 224 222 218 218 221 225 226 226 227 228 228 228 226 225 224 222 222 221 221 220 221 220 220 219 218 216 215 215 213 212
124 156 132 118 159 96 131 267 330 285 271 248 180 183 223 278 303 157 190 318 221 91 85 101 104 73 56 56 48 44 46 45 37 33 32 30 29 27 29 30 29 26 24 28 32 34 33 28 26 26 21 11 353 328 292 266 251 243 240 238 239 240 240 242 242 239 232 224 222 217 216 218 221 225 225 226 228 228 227 226 225 225 223 223 223 223 222 222 221 221 220 220 219 218 217 216 216
170 191 303 278 234 96 224 186 122 254 266 280 158 192 221 238 253 62 333 310 230 201 351 81 99 78 58 54 48 47 47 43 38 31 26 23 21 25 31 31 27 24 25 26 28 32 34 33 30 27 25 20 8 348 319 290 276 263 257 256 254 251 251 251 248 244 237 228 226 222 217 217 218 221 223 225 227 228 226 226 226 226 224 224 224 224 223 223 223 222 221 220 220 220 219 219 218
205 203 204 283 311 343 259 233 208 244 263 3 7 332 240 242 254 268 277 293 306 98 18 47 80 77 65 61 58 57 45 38 38 29 24 25 23 25 30 30 27 25 24 24 26 29 32 33 32 29 26 24 19 9 353 324 298 284 275 271 270 266 263 260 254 250 243 234 231 226 221 220 218 219 223 226 228 228 226 225 226 226 225 225 226 225 224 224 223 222 221 221 222 222 221 221 220
185 189 170 177 210 244 253 248 252 260 264 58 13 266 254 267 262 244 261 290 2 62 55 63 77 76 72 67 62 57 45 39 36 29 28 28 28 31 32 30 29 26 24 24 26 28 30 32 32 31 29 28 27 23 16 1 332 305 288 278 277 278 276 271 265 258 252 243 235 231 229 228 226 228 232 233 233 231 228 227 227 227 227 227 228 227 226 226 224 223 223 223 223 224 223 223 223
186 182 167 198 204 217 248 237 240 268 272 126 115 209 257 284 318 184 257 298 31 66 71 81 80 73 72 65 56 51 45 40 35 32 32 31 29 30 30 29 27 25 23 24 26 27 28 29 31 32 31 30 31 30 25 17 0 335 313 297 287 283 281 280 276 269 262 253 245 241 239 237 237 239 242 242 238 235 232 230 229 228 228 228 229 229 228 227 226 225 225 225 225 225 225 225 225
188 126 173 230 216 202 236 250 233 304 307 253 201 239 263 279 297 280 270 284 93 90 80 80 77 71 68 59 51 45 41 37 33 32 33 31 30 29 28 27 24 22 24 26 25 25 26 27 30 32 32 31 33 33 30 25 15 1 349 337 317 299 289 284 280 276 272 266 260 255 251 247 247 247 248 247 244 241 238 235 232 231 230 230 229 229 229 228 228 227 226 226 227 227 227 227 226
141 166 202 222 201 187 236 268 158 91 279 252 226 264 273 281 290 284 137 101 98 95 83 81 80 71 66 58 48 42 39 36 33 34 33 28 27 27 27 25 22 21 24 27 27 26 26 28 30 32 32 31 32 34 34 31 26 18 10 2 347 327 309 296 289 283 279 275 270 265 261 258 255 254 252 251 249 247 244 240 236 234 233 232 231 231 230 230 229 228 228 228 229 229 229 229 228
142 191 213 115 29 224 230 257 170 191 245 239 219 251 270 286 288 120 114 110 104 97 89 86 82 74 71 62 51 42 39 39 38 37 34 30 27 24 23 22 22 23 24 25 24 25 27 30 33 34 33 29 29 33 36 34 31 27 22 17 6 350 332 316 305 297 290 284 278 273 269 266 264 261 258 256 254 250 248 245 240 238 236 235 233 233 232 231 230 230 229 230 230 230 230 230 230
133 266 295 80 246 236 200 212 233 233 244 240 213 233 253 254 246 227 147 132 115 101 92 77 62 62 64 62 55 45 42 41 41 39 35 33 29 25 23 21 22 24 23 22 21 22 25 27 30 33 35 32 31 34 36 36 35 31 28 26 21 12 358 338 322 313 303 293 286 281 277 274 272 269 265 262 258 253 250 247 243 240 239 238 237 235 234 232 231 230 230 230 231 231 230 231 231
41 288 282 291 257 255 225 200 225 237 249 255 233 230 235 229 245 263 232 121 107 102 97 82 70 67 65 67 59 46 46 44 41 41 37 35 33 30 28 24 22 23 22 21 21 22 24 26 28 30 31 31 31 32 34 34 34 32 31 31 29 26 19 5 348 332 317 304 295 289 285 282 278 274 270 266 262 257 253 250 247 244 241 240 238 236 235 234 232 231 231 230 231 231 230 231 231
190 221 228 218 216 282 280 251 214 237 253 255 249 243 232 237 272 229 114 92 82 95 100 95 85 77 71 70 70 64 62 57 52 51 43 40 36 33 30 26 24 22 21 22 22 23 24 25 28 29 28 29 29 29 29 30 31 30 30 31 30 29 27 22 14 359 339 322 309 301 297 294 288 281 276 271 265 262 258 254 251 248 245 242 240 238 236 234 233 232 232 232 232 231 230 230 230
204 220 218 215 207 200 250 243 210 224 244 237 250 252 226 224 44 101 107 88 85 96 101 102 97 92 88 76 72 76 75 70 68 59 50 47 42 40 38 32 29 25 22 21 21 24 24 23 24 24 25 26 28 28 27 26 24 24 27 29 29 28 28 26 23 17 6 354 339 324 313 306 297 290 285 279 272 266 263 259 255 251 248 245 243 240 238 235 234 233 232 233 232 231 231 230 229
Height
830 830 829 830 828 829 829 829 839 839 840 845 839 837 835 833 835 833 829 826 828 827 827 827 826 825 825 826 824 821 819 819 817 821 821 809 804 804 804 805 806 808 810 812 813 815 816 818 819 821 823 824 825 827 828 829 830 831 832 833 834 835 835 836 837 837 838 838 839 839 840 840 841 841 841 841 841 841 841 841 841 841 842 842 842 843 843 843 843 843 843 843 843 843 843 843 843
830 830 829 830 828 830 832 832 844 844 844 846 836 835 835 834 835 830 827 827 827 827 828 828 826 825 825 824 822 822 818 812 809 811 808 804 804 804 804 805 806 808 810 812 813 815 817 817 819 820 822 823 825 826 827 828 829 830 831 832 833 834 835 836 837 837 838 838 839 839 840 840 841 841 841 841 841 841 841 841 841 841 842 842 842 843 843 843 843 843 843 842 842 842 842 842 843
831 831 830 831 829 830 833 836 844 848 850 849 835 831 835 834 830 827 827 826 826 828 830 828 828 825 824 825 822 822 816 808 807 808 805 804 804 803 804 805 805 808 809 811 813 815 817 818 818 819 821 823 824 825 827 828 829 830 831 832 833 834 835 835 836 837 838 838 838 839 839 839 840 841 841 841 841 841 841 841 841 842 842 843 843 843 843 843 843 843 843 842 842 842 842 842 843
831 830 831 830 831 832 835 841 844 849 851 847 838 830 833 833 828 827 826 826 826 829 829 827 827 822 823 824 819 819 814 807 806 806 805 804 804 804 804 805 806 807 809 810 813 815 817 818 818 819 821 822 824 825 826 827 828 829 830 831 832 833 834 835 836 836 837 837 838 838 838 839 840 841 841 841 841 841 841 842 842 842 842 843 843 843 843 843 844 843 842 842 842 842 842 842 842
831 831 831 830 834 836 839 847 846 850 846 840 839 830 830 831 828 828 825 825 826 828 827 826 825 820 821 821 818 817 810 805 805 805 805 804 804 804 804 806 806 807 808 810 812 814 816 817 818 819 821 822 823 824 825 826 828 829 830 831 831 832 833 834 835 835 836 836 837 837 838 839 839 840 841 841 841 841 842 842 842 842 842 842 843 843 843 843 844 843 842 842 841 841 841 842 842
832 831 831 830 836 838 842 850 848 847 838 834 838 828 826 828 828 829 826 824 825 827 826 826 824 822 821 816 814 811 805 805 805 804 805 804 804 804 804 805 806 807 809 810 812 814 815 816 818 819 821 822 823 824 825 826 827 828 829 830 831 832 833 833 834 835 835 836 836 837 838 838 839 840 840 841 841 841 841 842 842 842 842 842 842 843 843 843 843 842 841 841 841 841 841 841 841
832 832 832 834 838 839 844 848 844 841 834 833 836 829 825 825 827 829 826 825 825 826 827 826 824 824 820 813 812 806 802 805 804 803 804 803 803 803 804 805 806 807 809 811 812 814 815 815 817 819 820 822 823 824 824 825 826 827 828 829 830 831 832 833 833 834 835 835 836 836 837 838 839 839 840 840 840 841 841 841 842 841 842 842 842 842 843 842 843 842 841 841 841 841 841 841 841
831 833 835 837 841 844 846 847 843 839 836 835 834 830 827 824 827 829 827 827 825 824 826 825 824 825 817 814 814 804 802 803 802 803 803 803 803 803 803 804 806 807 809 810 812 813 814 815 817 818 820 821 822 823 824 825 826 827 828 829 830 831 831 832 833 834 835 835 836 837 837 838 838 839 840 840 840 840 841 841 841 841 841 841 841 842 842 842 842 841 840 841 841 841 841 840 840
831 834 838 839 843 847 847 846 842 838 836 835 832 829 826 825 828 829 827 825 824 823 823 822 824 824 815 814 812 801 801 802 801 802 802 803 802 802 802 803 804 806 807 809 811 812 814 814 816 818 819 820 821 823 824 825 826 827 827 828 829 830 831 831 833 833 834 835 836 837 837 837 838 839 839 840 840 840 840 840 840 841 840 841 841 841 841 842 842 841 840 840 840 840 840 840 840
833 835 838 841 844 848 847 842 838 836 834 832 830 826 825 825 827 829 828 824 823 822 822 823 824 821 814 813 808 800 800 800 801 801 801 802 801 802 802 803 804 805 806 807 809 811 813 814 815 817 818 820 821 822 823 824 825 826 827 828 829 829 830 831 832 833 834 835 835 836 837 837 837 838 839 839 839 839 839 839 840 840 840 840 840 841 841 841 841 840 840 840 840 840 839 839 839
835 837 838 842 847 847 843 837 834 832 830 831 828 824 824 825 828 828 827 824 822 822 822 824 822 818 816 814 806 799 799 799 800 800 800 801 801 802 802 803 803 804 805 806 808 809 811 813 814 816 817 819 820 821 822 823 824 825 826 827 828 829 830 831 831 832 833 834 834 835 836 837 837 837 837 837 838 838 838 839 839 839 839 840 840 840 840 840 840 840 839 839 839 839 839 839 839
837 839 839 843 845 842 841 840 836 832 829 830 826 823 825 826 829 825 825 824 821 822 820 820 817 814 817 813 803 797 798 798 798 799 799 800 800 801 801 802 803 805 805 806 808 808 810 812 814 815 816 818 819 820 821 822 824 824 826 826 828 828 829 830 831 832 832 833 834 835 835 836 836 836 836 836 837 837 838 838 838 838 839 839 839 840 839 839 839 839 839 839 839 839 839 839 839
837 839 839 842 844 841 845 845 839 838 830 825 822 824 828 826 825 821 821 822 821 821 816 814 813 814 815 809 800 795 796 796 796 797 797 799 799 800 801 802 803 804 806 807 807 808 809 811 813 814 815 816 817 819 820 821 822 823 825 825 827 827 828 829 830 831 831 832 833 834 834 835 834 834 835 835 836 836 837 837 837 838 838 839 839 839 839 839 839 839 839 839 839 839 839 839 839
835 838 837 842 849 847 847 843 837 841 830 819 821 824 828 824 821 821 821 821 818 817 814 811 812 816 813 807 801 794 794 795 795 797 796 798 798 799 800 801 802 803 805 806 807 808 808 809 811 813 814 815 816 817 818 819 820 822 823 824 825 826 827 828 829 829 830 831 832 833 833 833 833 833 834 835 835 835 836 836 836 837 837 838 838 838 838 838 838 839 839 839 839 839 839 839 839
835 836 838 841 849 847 845 841 837 842 830 818 823 825 826 822 820 822 820 820 815 811 813 812 813 814 809 806 801 793 794 795 795 796 796 797 798 799 800 801 802 802 804 804 805 806 807 808 809 811 812 813 814 815 816 817 818 820 821 822 823 824 825 826 827 828 829 830 831 831 832 832 832 833 833 834 834 834 835 835 836 836 837 837 838 838 838 838 838 838 839 839 839 839 839 839 839
834 835 840 841 845 846 842 841 841 843 828 818 824 826 824 819 819 821 818 818 815 811 813 811 810 809 802 801 797 792 794 794 795 796 796 797 797 799 799 800 802 802 803 802 803 804 805 806 807 808 809 811 812 813 814 815 816 818 819 820 821 823 824 825 826 827 828 828 829 830 831 831 832 832 833 833 833 834 834 835 835 836 837 837 837 837 838 838 838 838 839 839 839 839 839 839 839
835 835 841 841 842 843 838 838 839 834 823 818 824 825 823 819 819 820 818 819 815 811 811 807 805 802 798 796 793 792 794 794 795 795 796 797 797 798 799 799 801 801 801 800 801 802 803 804 805 806 807 808 810 811 812 813 814 815 817 818 819 821 822 823 824 825 826 827 828 828 829 830 831 832 832 832 833 833 833 834 835 836 836 836 837 837 837 838 838 838 839 839 839 839 839 840 840
836 836 841 840 835 834 829 829 827 825 821 818 820 822 822 820 818 818 817 817 813 810 806 803 802 798 794 793 792 793 793 794 794 795 795 796 796 796 797 797 798 798 798 798 798 799 800 801 802 804 805 806 807 808 809 810 812 813 815 816 818 819 820 821 822 823 824 825 826 827 828 829 830 831 831 831 832 832 833 833 834 835 836 836 836 837 837 838 838 838 839 839 839 839 840 840 840
835 836 841 836 827 825 822 821 820 821 821 817 818 822 822 819 817 818 818 814 811 810 802 798 799 794 791 791 791 791 792 793 793 793 794 793 793 793 793 794 794 794 794 794 794 795 797 798 799 800 801 802 804 805 806 808 810 811 813 814 816 817 818 819 820 821 822 823 823 825 827 828 828 829 829 830 830 831 832 833 834 835 835 835 836 836 837 837 838 838 838 839 839 840 840 840 840
833 836 839 829 820 821 821 820 819 818 818 818 818 820 822 818 817 818 817 813 810 808 799 795 795 790 788 787 787 789 790 791 791 791 791 790 790 790 790 790 790 789 789 789 790 792 793 794 795 796 798 800 801 803 804 806 807 809 810 812 813 814 815 817 818 818 819 820 820 823 825 825 826 827 827 828 829 830 831 833 833 834 834 835 835 836 836 837 837 837 838 839 839 839 840 840 840
833 834 831 821 820 822 819 818 817 817 820 821 819 821 820 815 816 816 814 815 807 798 793 790 788 785 785 784 783 786 788 788 789 788 788 787 787 787 786 786 786 785 785 787 788 788 788 790 791 793 795 797 799 800 801 802 804 806 807 809 810 811 813 813 814 815 816 817 818 821 821 821 823 825 825 826 828 830 831 832 833 833 834 834 834 835 835 836 836 837 837 838 839 839 839 840 840
833 828 821 818 822 823 815 815 817 819 823 823 821 820 816 814 815 812 812 813 799 786 784 784 782 782 782 782 782 784 785 786 785 785 784 784 783 783 783 783 783 783 783 783 783 784 784 785 787 789 791 793 795 797 798 799 801 802 803 806 806 808 809 810 810 811 813 814 816 817 818 819 821 822 823 824 826 828 829 830 831 832 832 832 833 834 834 834 835 836 837 837 838 839 839 840 840
830 822 818 817 819 820 814 815 820 821 823 821 819 815 813 815 811 805 807 804 788 779 780 780 779 779 779 780 782 782 783 782 781 781 780 780 779 778 779 779 779 779 779 778 779 780 780 781 783 785 787 789 792 794 795 795 796 798 800 801 802 804 805 805 806 808 809 810 812 814 815 817 819 820 821 822 824 825 827 828 829 829 830 830 831 832 833 834 835 835 836 837 838 838 839 839 840
832 823 819 818 818 818 814 817 820 820 820 816 815 815 813 812 808 803 800 792 782 778 778 778 777 777 778 779 779 779 779 778 778 776 776 776 775 774 775 776 776 776 775 774 775 776 776 776 778 781 783 785 787 789 791 792 792 794 796 797 798 799 800 801 803 804 806 807 809 811 813 815 816 817 818 819 821 822 824 824 826 826 827 829 829 831 832 833 834 834 835 836 837 838 838 839 839
832 824 817 819 819 817 814 817 820 820 817 814 816 815 807 804 806 802 791 785 781 779 777 775 775 776 776 776 776 777 776 775 774 772 772 772 770 771 772 771 773 773 771 770 771 771 772 773 775 776 778 780 782 785 787 788 788 790 791 792 793 795 796 798 799 800 802 804 806 807 809 811 813 814 815 816 818 819 821 821 823 824 825 827 828 829 830 831 832 833 834 835 836 837 837 838 839
825 821 818 819 819 815 814 816 816 816 813 812 816 812 802 801 806 796 779 778 778 777 776 773 774 775 773 774 773 773 773 771 770 769 769 767 768 768 766 767 769 767 766 767 768 768 769 771 771 772 774 776 778 780 782 783 784 785 786 788 789 791 792 794 795 797 799 800 802 803 806 808 809 811 812 813 815 816 817 819 820 822 823 825 826 827 829 830 831 832 833 834 835 836 837 837 838
823 824 821 820 817 814 814 813 811 813 809 808 812 808 799 800 808 792 770 772 776 776 776 772 774 773 771 772 770 770 770 768 766 766 765 764 764 763 762 763 763 761 763 765 765 766 767 768 768 770 772 773 775 776 777 779 779 780 783 785 786 787 789 790 792 793 795 796 797 800 802 804 806 807 809 810 812 813 814 816 818 819 821 823 824 826 827 828 829 831 832 833 834 835 835 836 837
827 828 823 818 816 811 810 810 808 809 807 803 807 806 800 801 806 789 770 772 775 776 776 772 772 770 768 769 767 767 766 764 763 764 762 760 759 758 758 759 758 758 760 760 760 763 763 764 766 768 770 771 772 773 774 775 776 777 780 781 782 783 785 786 788 790 791 793 794 796 798 800 802 803 805 807 809 811 812 814 816 817 819 820 822 823 825 827 828 829 830 831 833 833 834 835 836
829 828 826 818 814 809 802 801 803 806 805 801 805 809 802 798 794 779 771 773 774 776 775 771 769 767 766 766 765 764 761 760 760 759 757 754 755 756 756 756 756 757 756 756 757 758 759 760 762 763 765 767 768 769 770 771 772 773 775 776 778 780 781 781 784 785 787 789 791 793 796 797 798 800 802 803 806 808 810 812 813 815 817 818 820 822 823 825 826 828 829 830 831 832 833 834 835
828 827 828 822 817 808 797 799 805 806 804 800 804 807 795 784 779 771 770 773 774 776 772 769 767 764 764 763 763 761 758 757 756 754 752 752 754 756 756 755 756 755 754 754 754 753 754 755 757 757 759 761 763 765 767 767 768 769 771 772 774 776 776 777 779 782 784 786 788 790 792 794 796 798 799 801 804 806 807 810 811 813 815 816 818 820 822 823 824 826 827 829 830 831 832 833 834
825 826 827 825 823 809 795 801 808 805 802 800 803 805 791 778 774 769 770 774 776 776 770 767 764 762 762 761 761 758 754 752 751 750 751 752 753 753 752 752 752 751 750 750 749 749 750 750 751 753 754 755 757 760 761 762 764 765 767 768 771 772 772 773 776 778 780 782 784 787 789 791 793 795 797 799 801 803 805 807 809 811 812 815 817 818 820 821 822 824 825 827 828 830 831 832 833
825 828 824 821 823 809 795 797 800 798 800 803 804 800 788 778 773 768 771 775 776 776 771 766 761 759 759 757 756 754 750 748 748 750 751 750 750 748 747 746 745 745 744 744 744 745 746 746 746 748 749 751 752 754 756 758 760 762 763 765 767 767 768 770 773 775 777 779 781 783 785 788 791 793 795 797 799 800 802 804 806 808 810 813 814 816 817 819 820 822 823 825 826 828 829 831 832
823 826 822 816 816 809 800 794 789 792 800 803 802 794 784 778 772 768 771 772 773 773 769 763 758 755 754 752 750 750 748 747 748 749 749 748 746 744 742 740 739 739 739 740 740 741 742 742 743 744 744 746 748 749 752 754 757 759 760 762 763 764 765 768 770 772 774 776 777 779 782 785 788 790 793 795 797 798 800 802 804 806 808 810 812 813 815 816 818 820 821 823 825 826 828 829 831
817 820 820 815 813 811 805 794 785 791 797 797 797 793 785 779 773 771 769 768 770 769 764 759 755 751 749 748 746 746 748 748 747 747 747 746 742 739 738 737 736 736 736 736 737 738 738 740 740 740 741 743 745 747 749 752 754 756 758 760 761 762 763 765 768 769 770 772 774 776 778 781 784 787 790 792 795 796 798 800 802 803 806 808 809 811 813 814 816 818 820 821 823 825 826 828 829
809 813 815 812 812 812 809 799 788 788 792 792 793 789 781 776 773 771 767 765 766 764 759 753 750 749 747 745 744 746 748 747 747 747 745 742 739 738 736 735 734 734 734 734 734 735 736 737 737 738 740 742 744 746 748 751 753 755 756 758 758 760 761 763 765 766 767 769 771 773 775 778 781 783 786 789 792 794 796 798 799 801 803 805 807 809 810 812 814 816 817 819 821 823 825 827 828
810 815 815 813 811 807 802 796 787 789 794 792 790 781 774 773 770 768 765 762 762 758 752 749 748 747 744 742 743 746 747 747 747 745 742 741 739 738 735 733 732 732 732 732 733 733 734 735 736 737 739 741 743 744 746 748 750 752 754 755 755 756 758 760 761 762 764 766 767 770 772 775 777 779 782 785 788 790 792 795 796 798 800 802 804 806 807 809 811 813 815 817 819 822 824 825 826
818 819 818 815 812 805 797 792 786 791 796 789 784 778 772 771 767 765 762 758 756 751 749 749 746 743 739 740 744 747 749 748 746 743 741 741 740 738 736 733 731 730 730 731 731 732 733 734 734 735 736 739 741 742 743 744 746 748 749 750 750 753 755 756 758 759 761 762 764 766 769 772 774 776 779 781 784 787 789 791 793 795 797 800 801 803 805 806 808 811 813 816 818 820 822 823 825
817 817 817 814 812 804 794 792 786 790 798 789 781 779 774 771 765 759 757 756 754 749 748 747 741 736 737 742 747 749 749 746 743 741 741 742 741 740 737 733 732 730 729 730 730 731 732 733 734 735 735 736 738 739 741 742 743 744 745 746 748 750 751 752 754 755 757 759 760 763 766 768 771 773 776 779 781 783 786 787 790 792 795 797 799 801 803 804 806 808 811 813 816 818 820 821 823
816 815 817 815 810 801 792 791 791 796 800 787 781 782 776 769 760 752 751 752 749 745 743 740 735 736 740 745 749 748 747 745 742 741 741 741 742 741 738 735 734 732 730 729 729 730 731 732 733 734 735 735 736 737 738 739 741 742 744 745 747 749 750 751 753 754 755 756 758 760 763 765 768 771 773 776 778 780 782 784 786 789 792 794 797 799 800 802 804 805 807 810 813 816 818 819 820
814 813 815 813 806 803 799 793 796 801 798 790 788 784 770 758 751 747 747 747 745 741 737 734 736 741 744 746 747 746 746 745 743 741 740 741 742 742 740 739 736 734 732 730 729 729 730 731 732 733 734 734 736 736 737 739 740 741 743 745 746 748 750 750 752 753 754 756 758 759 761 763 765 768 770 772 775 776 778 781 783 785 788 790 793 795 796 798 800 801 804 806 809 812 815 816 817
808 810 813 808 800 802 799 793 796 797 792 795 792 774 757 751 750 746 743 746 746 737 732 736 741 743 744 745 746 746 747 747 745 743 742 742 744 744 743 743 740 737 735 731 729 729 729 730 731 732 733 733 734 735 737 739 740 740 742 744 746 747 749 749 750 752 754 756 757 759 760 762 764 766 767 769 771 773 775 777 779 782 784 786 789 791 792 794 796 798 800 803 805 807 809 812 814
806 805 805 802 798 799 797 796 802 799 793 797 796 782 764 753 753 748 740 744 743 731 730 739 743 744 744 744 746 747 748 748 747 746 746 746 747 746 745 744 743 741 738 733 731 730 730 729 730 732 733 733 734 734 736 738 740 741 742 742 743 744 745 745 746 748 750 752 754 757 759 760 763 764 765 766 768 770 772 774 776 778 781 783 785 787 789 791 792 794 796 799 801 803 806 809 810
810 805 801 801 801 802 804 806 809 802 794 797 801 798 781 759 753 750 745 746 738 726 730 738 744 745 744 745 746 747 748 748 750 750 750 751 752 750 747 746 747 745 739 735 733 732 731 730 730 731 732 733 734 735 736 737 739 741 742 742 742 742 742 742 743 745 746 748 750 753 755 757 760 762 764 765 766 768 769 771 773 775 778 779 781 783 785 787 789 791 793 795 798 801 803 805 806
809 808 808 806 805 808 811 812 810 804 798 798 798 800 793 771 756 751 748 746 735 728 733 740 746 747 746 748 749 748 749 751 753 754 754 757 758 756 754 754 753 747 739 736 735 734 733 732 731 731 732 733 734 735 736 738 739 740 741 742 743 743 744 744 744 744 744 745 747 749 751 753 756 759 762 763 765 767 768 769 771 773 775 776 778 780 781 783 785 788 790 793 795 797 799 801 802
808 814 815 812 813 814 814 811 808 806 805 801 796 798 794 771 754 753 753 749 740 735 740 746 750 749 749 751 750 750 753 756 758 759 761 763 762 761 761 758 751 744 741 741 740 738 737 736 733 733 733 734 734 735 736 738 739 741 741 742 743 744 745 746 746 746 745 745 746 747 749 750 752 755 757 760 762 764 766 767 768 770 772 773 775 777 779 780 782 784 786 789 791 793 795 797 799
811 817 815 814 816 815 815 812 805 808 809 799 792 793 788 766 749 751 755 752 745 741 746 752 754 753 753 752 751 755 758 761 764 765 766 765 763 763 760 753 747 746 747 746 743 741 740 739 736 735 735 735 735 736 737 738 739 740 741 742 743 744 745 746 746 747 747 746 746 746 747 748 749 751 753 755 757 759 762 764 765 766 768 770 772 774 776 777 779 780 782 785 787 790 791 793 795
815 814 808 810 811 810 813 810 807 812 804 787 781 782 784 775 755 747 749 749 747 746 749 754 756 756 755 754 757 761 764 767 768 768 766 764 763 761 755 750 750 751 751 749 746 743 742 742 740 738 737 737 737 737 738 739 740 741 742 742 742 743 744 745 745 746 747 747 747 747 746 746 747 747 749 751 753 755 758 759 761 762 764 766 767 769 771 773 775 777 779 782 784 786 787 789 791
815 809 805 806 806 807 809 809 814 815 797 783 783 782 784 780 760 747 745 742 744 747 748 751 754 756 758 761 765 768 770 770 769 768 765 764 763 758 753 753 754 755 753 752 750 747 745 745 744 741 740 739 738 739 739 739 741 742 743 743 742 743 744 745 745 745 746 746 747 747 747 746 746 745 746 747 749 751 754 756 758 759 760 761 762 764 766 768 770 773 775 777 779 781 783 784 786
813 809 809 814 816 818 817 812 812 806 792 792 796 792 787 774 754 747 741 735 739 746 749 751 753 758 765 769 771 773 773 771 768 769 768 766 765 761 757 758 759 759 758 757 754 752 750 749 747 745 744 743 741 740 739 740 741 742 744 743 743 744 744 745 745 745 745 745 746 746 746 746 745 744 744 744 744 746 749 752 754 755 757 758 759 760 762 764 766 768 770 771 773 775 777 778 780
814 808 809 816 821 828 824 814 810 801 792 798 800 795 788 769 749 744 739 736 742 749 755 758 757 763 771 772 773 774 774 773 773 774 773 770 767 764 763 764 765 764 764 762 759 756 755 753 752 750 748 746 744 742 740 740 741 743 744 743 742 743 744 745 745 745 745 744 744 744 744 744 744 743 743 742 743 743 745 747 749 752 754 756 758 759 760 761 762 764 765 766 768 769 771 773 775
810 802 803 805 804 813 814 805 804 798 789 796 801 795 781 763 750 745 741 740 747 754 758 761 764 769 773 773 775 777 777 778 779 778 776 772 770 768 769 769 769 768 767 765 762 760 759 757 755 753 751 749 746 744 742 742 743 744 744 742 741 742 744 745 745 745 744 744 743 742 742 742 742 742 742 742 742 742 743 744 746 748 750 753 755 757 759 760 761 762 763 763 764 765 767 769 771
807 803 804 802 792 794 800 797 796 798 797 796 795 785 766 751 745 741 739 742 749 757 761 763 769 772 774 776 779 781 782 783 782 780 777 775 774 774 773 773 772 771 769 766 764 762 761 759 757 755 753 752 750 748 746 745 745 745 743 741 740 740 742 743 744 744 744 743 742 741 741 740 740 740 740 741 741 742 742 743 743 744 746 748 750 753 755 757 759 760 761 762 762 763 765 766 767
805 808 800 796 790 789 797 799 797 804 808 794 783 778 763 751 745 738 739 747 753 760 764 769 775 777 778 782 784 786 786 785 784 782 780 780 779 778 777 777 776 774 771 768 767 766 763 761 758 756 755 755 754 751 748 745 744 744 742 740 739 740 741 742 743 743 743 742 741 740 740 739 739 739 739 739 739 740 741 741 742 742 743 745 746 748 750 752 754 756 757 758 759 760 762 763 764
799 803 793 791 796 794 796 803 804 808 809 790 776 774 766 759 754 744 742 748 754 761 768 774 778 780 782 785 787 788 787 786 786 784 784 784 783 783 782 781 779 775 772 770 768 767 766 763 761 759 758 757 755 750 745 744 744 744 742 740 740 740 741 741 741 741 741 741 740 739 738 738 738 738 737 737 738 738 738 738 739 740 741 742 743 744 746 748 749 751 752 753 754 756 758 758 759
794 796 792 791 798 795 793 802 806 804 801 787 774 769 764 760 752 743 741 743 749 762 771 776 780 782 784 786 788 788 787 787 787 786 787 786 786 786 784 782 779 776 774 772 770 768 766 764 762 760 758 755 753 748 745 745 745 745 745 742 741 740 740 740 740 740 739 739 739 738 737 737 736 736 736 735 736 735 736 736 736 736 737 738 740 742 743 745 746 746 747 748 750 751 753 753 754
798 798 794 792 793 791 789 793 794 791 789 782 772 766 758 749 739 737 743 746 750 761 772 781 785 786 788 789 789 789 788 788 788 788 788 787 787 785 783 782 780 778 776 774 772 770 767 764 761 758 756 753 751 749 748 748 747 747 747 744 743 741 740 740 740 739 738 737 737 737 736 735 734 734 733 733 733 733 733 733 733 733 734 735 737 738 740 741 743 743 744 744 745 746 748 749 750
795 795 794 794 793 792 791 789 784 782 783 780 775 769 755 741 736 740 750 756 759 764 774 784 789 789 790 791 790 791 790 790 789 789 788 787 786 784 782 781 780 778 777 775 774 771 768 765 762 759 757 755 753 751 751 750 749 749 748 746 744 743 742 741 740 739 737 736 736 736 735 734 733 732 731 731 731 731 731 731 731 731 731 732 733 734 736 737 738 739 740 741 741 742 743 743 745
784 786 784 784 786 791 794 788 777 775 778 776 774 771 755 742 742 749 759 767 769 772 779 787 791 792 793 793 792 792 791 791 790 788 787 785 783 783 781 780 779 778 777 775 773 771 769 767 765 763 761 759 756 754 752 752 751 751 749 747 745 744 743 742 740 739 736 734 734 734 734 733 732 731 729 729 729 729 729 729 728 728 728 729 729 730 732 733 734 734 735 736 737 738 739 739 740